Tracking 18816 objects as of 19-October-2017
HD Live streaming from Space Station
objects crossing your sky now

AMSAT OSCAR 40

Track AMSAT OSCAR 40 now!
AMSAT OSCAR 40 is classified as:


NORAD ID: 26609
Int'l Code: 2000-072B
Perigee: 1,161.1 km
Apogee: 58,674.7 km
Inclination: 6.6 °
Period: 1,146.6 minutes
Semi major axis: 36288 km
RCS: 1.8057 m2 (large)
Launch date: November 16, 2000
Source: Germany (GER)
Launch site: FRENCH GUIANA (FRGUI)
Uplink (MHz):
Downlink (MHz):
Beacon (MHz): 2401.323
Mode: 400bps PSK
Call sign:
Status: Inactive

aabbcc
Your satellite tracking list
Your tracking list is empty





NASA's NSSDC Master Catalog

Two Line Element Set (TLE):
1 26609U 00072B   17289.44748594 -.00000393 +00000-0 +00000-0 0  9990
2 26609 006.6059 197.3139 7924399 171.1210 225.2341 01.25586281077742
Source of the keplerian elements: AFSPC